User: anonymous   Login
Location: Unspecified
(0.0000°N, 0.0000°E)
Time: 05:24:17
(UTC+01:00)
Language:

GPS 2-05 Rocket1 - Orbit

View from above orbital plane
View from above orbital plane
View from above satellite
View from above satellite

Ground track
Ground track

The orbit data is extracted from the following two-line orbital elements,

1 20362U 89097B   17350.58821104 +.00011950 +00000-0 +14947-3 0  9995
2 20362 035.6056 118.7420 0046834 206.3834 219.3164 15.57627528528687
Epoch (UTC): 16 December 2017 14:07:01
Eccentricity: 0.0046834
inclination: 35.6056°
perigee height: 363 km
apogee height: 426 km
right ascension of ascending node: 118.7420°
argument of perigee: 206.3834°
revolutions per day: 15.57627528
mean anomaly at epoch: 219.3164°
orbit number at epoch: 52868

The dashed part of the orbit path shows where the satellite is in the earth's shadow,  

DLR